Weather in Daet

Philippines     14°06′16″N   122°57′03″E
temp.,
°C
wind,
m/s
gust,
m/s
humid.,
%
clouds,
%
prec.,
mm/h
press.,
hPa
HPBL,
m
22 october, fri
fri2223:00+26nne3589100 0.6 1013375
02:00+26nne358798 1.0 1011508
05:00+25nne4685100 0.1 1011564
08:00+27ne477581 0.2 1013823
11:00+29ne576885 0.1 10121312
14:00+28nne5674100 0.3 1011985
17:00+26ne478680 0.8 1011550
20:00+25ne379047 3.4 1013449
23 october, sat
sat2323:00+25nne2490100 1.2 1013333
02:00+25ne3690100 1.5 1011454
05:00+25ne369077 0.8 1011379
08:00+26ne4788100 1.6 1013678
11:00+26ene589198 4.6 1013789
14:00+25ene4891100 7.2 1011608
17:00+25ene61187100 1.8 1011746
20:00+25e51187100 1.9 1013697
24 october, sun
sun2423:00+25e51091100 1.0 1013723
02:00+24ene5994100 3.1 1011682
05:00+25ene5988100 3.7 1010670
08:00+25e51088100 5.4 1012672
11:00+25ene598797 0.6 1012747
14:00+27ene5783100 1.8 1009897
17:00+25ne4789100 2.5 1010489
20:00+25ene498951 5.8 1012535
25 october, mon
mon2523:00+25ene378850 0.0 1011460
02:00+24e248953 1.2 1009275
05:00+24ese1289100 5.8 1010124
08:00+26e1287100 8.4 1011240
11:00+26ne2284100 2.4 1010513
14:00+26ne3587100 3.8 1008563
17:00+25ne3592100 3.6 1009333
20:00+25ene3590100 6.0 1011360
26 october, tue
tue2623:00+24ne239292 1.6 1011269
02:00+24nne129136 1.9 1009242
05:00+24ne019074 0.0 1010214
08:00+26ese118926 1.2 1011225
11:00+27ne1185100 1.8 1010427
14:00+27n2385100 5.8 1009568
17:00+26nne338898 3.1 1009364
20:00+25n239099 3.6 1011279